2022-003A (51094 NORAD) Tracking and Keplerian Element Data

This shows tracking and keplerian element data for the satellite.

Feedback or suggestion? Click here.




ElementValue
Catalog51094
Name2022-003A
Epoch Orbit1928
Epoch Day140.41932021
Epoch Year2022
RAAN225.2815
Inclination44.9762
Eccentricity0.0006722
Argument of Perigee322.6706
Mean Anonmoly37.3708
Mean Motion15.23986432
Decay Rate0.00016554
L11 51094U 22003A 22140.41932021 .00016554 00000+0 68106-3 0 9991
L22 51094 44.9762 225.2815 0006722 322.6706 37.3708 15.23986432 19282

Live tracking and technical data element details for 2022-003A (NORAD 51094). 2022-003A can be tracked NOW for your location showing map with azimuth and elevation plus other details from your city location.

Track the satellite on the map from your city or location and see movement details for azimuth, elevation, latitude, longitude, range, height, and movement on the map or in text.







IsCatalogInMostPopularTable: catalog: 51094, numindb: 22
Update: records affected: 1



GetName: 51094 2022-003A

Hit Count: updated at: Sun, 22 May 2022 03:42:39 GMT